TYA321 UNKL-URSS

Flight info

Callsign TYA321
Flight time N/A
Altitude 38000
Route UNKL/29 K0859F320 APRU2F APRUS B926 ODIDA B808 DAKIN N55 ATNON/K0857F340 N55 OGANU P574 AKT N37 IPLED/K0865F360 DCT GOTIK DCT MEMZA DCT VENFO DCT BINOL BINO1K URSS/02
Aircraft B738/M-D/S

Departure

Time N/A
Airport Krasnoyarsk International Airport (UNKL)

Arrival

Time 2026-05-06 13:10
Airport Sochi International Airport (URSS)
Time Latitude Longitude Altitude Speed Heading
2026-05-06 10:19 50.07292 62.98095 37946 ft 416 kts 233°
2026-05-06 10:19 50.05493 62.94611 37937 ft 416 kts 231°
2026-05-06 10:19 50.01477 62.88142 37934 ft 417 kts 225°
2026-05-06 10:20 49.97198 62.82099 37933 ft 417 kts 224°
2026-05-06 10:20 49.92887 62.76093 37934 ft 419 kts 224°
2026-05-06 10:21 49.88587 62.70052 37932 ft 417 kts 224°
2026-05-06 10:21 49.84321 62.64027 37941 ft 418 kts 224°
2026-05-06 10:22 49.79998 62.57925 37943 ft 418 kts 224°
2026-05-06 10:22 49.75742 62.51810 37946 ft 418 kts 227°
2026-05-06 10:23 49.71933 62.45116 37948 ft 417 kts 232°
2026-05-06 10:23 49.68337 62.38119 37953 ft 416 kts 232°
2026-05-06 10:24 49.64753 62.31083 37954 ft 418 kts 232°
2026-05-06 10:24 49.61165 62.24115 37950 ft 418 kts 232°
2026-05-06 10:25 49.57547 62.17154 37950 ft 417 kts 231°
2026-05-06 10:25 49.53884 62.10150 37953 ft 418 kts 231°
2026-05-06 10:26 49.50292 62.03303 37948 ft 417 kts 231°
2026-05-06 10:26 49.46665 61.96416 37949 ft 419 kts 231°
2026-05-06 10:27 49.43018 61.89514 37945 ft 416 kts 231°
2026-05-06 10:27 49.39376 61.82640 37941 ft 416 kts 231°
2026-05-06 10:28 49.35726 61.75773 37936 ft 417 kts 231°
2026-05-06 10:28 49.32080 61.68922 37945 ft 417 kts 231°
2026-05-06 10:29 49.28392 61.62001 37938 ft 419 kts 231°
2026-05-06 10:29 49.24720 61.55139 37929 ft 418 kts 231°
2026-05-06 10:30 49.21027 61.48264 37929 ft 418 kts 231°
2026-05-06 10:30 49.17352 61.41426 37937 ft 420 kts 231°
2026-05-06 10:31 49.13666 61.34588 37924 ft 418 kts 230°
2026-05-06 10:31 49.09959 61.27731 37935 ft 419 kts 230°
2026-05-06 10:32 49.06242 61.20874 37926 ft 420 kts 230°
2026-05-06 10:32 49.03771 61.16328 37948 ft 420 kts 230°
2026-05-06 10:34 48.91405 60.93683 37944 ft 418 kts 230°
2026-05-06 10:34 48.87676 60.86884 37947 ft 419 kts 229°
2026-05-06 10:35 48.83966 60.80145 37936 ft 419 kts 229°
2026-05-06 10:35 48.82727 60.77897 37932 ft 421 kts 230°
2026-05-06 10:36 48.76055 60.65828 37933 ft 420 kts 230°
2026-05-06 10:36 48.72279 60.59027 37937 ft 420 kts 230°
2026-05-06 10:37 48.68535 60.52303 37939 ft 420 kts 229°
2026-05-06 10:37 48.64793 60.45599 37939 ft 420 kts 229°
2026-05-06 10:38 48.61071 60.38945 37942 ft 419 kts 229°
2026-05-06 10:38 48.57293 60.32200 37945 ft 420 kts 229°
2026-05-06 10:39 48.53553 60.25543 37945 ft 420 kts 229°
2026-05-06 10:39 48.49757 60.18804 37940 ft 422 kts 228°
2026-05-06 10:40 48.45968 60.12095 37944 ft 422 kts 228°
2026-05-06 10:40 48.42156 60.05363 37943 ft 421 kts 229°
2026-05-06 10:41 48.38356 59.98669 37943 ft 422 kts 228°
2026-05-06 10:41 48.34549 59.91981 37947 ft 422 kts 229°
2026-05-06 10:42 48.30730 59.85289 37933 ft 420 kts 228°
2026-05-06 10:42 48.26945 59.78672 37937 ft 422 kts 229°
2026-05-06 10:43 48.23113 59.72000 37935 ft 421 kts 229°
2026-05-06 10:44 48.17375 59.62030 37937 ft 423 kts 228°
2026-05-06 10:44 48.13543 59.55391 37930 ft 423 kts 228°
2026-05-06 10:45 48.09703 59.48753 37923 ft 422 kts 228°
2026-05-06 10:45 48.05867 59.42140 37922 ft 422 kts 229°
2026-05-06 10:46 48.02023 59.35527 37923 ft 421 kts 229°
2026-05-06 10:46 47.98214 59.28989 37918 ft 420 kts 228°
2026-05-06 10:47 47.94378 59.22422 37921 ft 421 kts 228°
2026-05-06 10:47 47.90523 59.15843 37919 ft 421 kts 227°
2026-05-06 10:48 47.86665 59.09271 37929 ft 422 kts 227°
2026-05-06 10:48 47.82800 59.02703 37930 ft 421 kts 227°
2026-05-06 10:49 47.78938 58.96158 37926 ft 422 kts 227°
2026-05-06 10:49 47.75075 58.89628 37929 ft 421 kts 227°
2026-05-06 10:50 47.71188 58.83070 37929 ft 422 kts 227°
2026-05-06 10:50 47.67313 58.76553 37930 ft 421 kts 227°
2026-05-06 10:51 47.63447 58.70067 37926 ft 421 kts 227°
2026-05-06 10:51 47.59576 58.63584 37932 ft 420 kts 227°
2026-05-06 10:52 47.55705 58.57117 37924 ft 422 kts 227°
2026-05-06 10:52 47.51812 58.50633 37923 ft 422 kts 227°
2026-05-06 10:53 47.47895 58.44124 37922 ft 422 kts 227°
2026-05-06 10:53 47.44005 58.37674 37917 ft 422 kts 227°
2026-05-06 10:54 47.40100 58.31215 37920 ft 422 kts 227°
2026-05-06 10:54 47.36185 58.24755 37917 ft 422 kts 227°
2026-05-06 10:55 47.32258 58.18292 37917 ft 421 kts 226°
2026-05-06 10:55 47.30333 58.15129 37911 ft 421 kts 226°
2026-05-06 10:57 47.17344 57.94330 37920 ft 421 kts 226°
2026-05-06 10:57 47.13353 57.87993 37909 ft 422 kts 226°
2026-05-06 10:58 47.09381 57.81691 37900 ft 423 kts 226°
2026-05-06 10:58 47.05375 57.75349 37896 ft 423 kts 226°
2026-05-06 10:59 47.01385 57.69049 37894 ft 423 kts 226°
2026-05-06 10:59 46.97389 57.62748 37894 ft 424 kts 226°
2026-05-06 11:00 46.93395 57.56469 37902 ft 422 kts 226°
2026-05-06 11:00 46.89411 57.50224 37902 ft 423 kts 226°
2026-05-06 11:01 46.85394 57.43937 37904 ft 423 kts 226°
2026-05-06 11:01 46.81393 57.37688 37898 ft 422 kts 226°
2026-05-06 11:02 46.77371 57.31422 37899 ft 424 kts 225°
2026-05-06 11:02 46.73366 57.25198 37892 ft 422 kts 225°
2026-05-06 11:03 46.69328 57.18938 37886 ft 424 kts 225°
2026-05-06 11:03 46.65303 57.12713 37881 ft 424 kts 225°
2026-05-06 11:04 46.61256 57.06469 37881 ft 424 kts 225°
2026-05-06 11:04 46.57196 57.00224 37878 ft 424 kts 225°
2026-05-06 11:05 46.53160 56.94025 37876 ft 424 kts 225°
2026-05-06 11:05 46.49168 56.87715 37890 ft 425 kts 229°
2026-05-06 11:06 46.45746 56.80719 37885 ft 427 kts 236°
2026-05-06 11:06 46.42683 56.73359 37897 ft 429 kts 237°
2026-05-06 11:07 46.39676 56.65906 37885 ft 429 kts 238°
2026-05-06 11:07 46.36657 56.58482 37885 ft 428 kts 237°
2026-05-06 11:08 46.36167 56.57286 37883 ft 428 kts 237°
2026-05-06 11:10 46.21462 56.21949 37889 ft 430 kts 237°
2026-05-06 11:10 46.18364 56.14579 37890 ft 430 kts 237°
2026-05-06 11:11 46.15286 56.07275 37889 ft 430 kts 237°
2026-05-06 11:11 46.12163 55.99888 37885 ft 430 kts 237°
2026-05-06 11:12 46.09070 55.92586 37883 ft 430 kts 236°
2026-05-06 11:12 46.05947 55.85236 37887 ft 430 kts 237°
2026-05-06 11:13 46.02826 55.77911 37887 ft 430 kts 237°
2026-05-06 11:13 45.99667 55.70513 37887 ft 430 kts 237°
2026-05-06 11:14 45.96594 55.63340 37885 ft 431 kts 237°
2026-05-06 11:14 45.93466 55.56054 37891 ft 429 kts 237°
2026-05-06 11:15 45.90314 55.48733 37887 ft 430 kts 237°
2026-05-06 11:15 45.87162 55.41426 37880 ft 430 kts 237°
2026-05-06 11:16 45.84028 55.34182 37879 ft 430 kts 236°
2026-05-06 11:16 45.80891 55.26952 37881 ft 429 kts 236°
2026-05-06 11:17 45.77716 55.19648 37875 ft 430 kts 236°
2026-05-06 11:17 45.74553 55.12397 37872 ft 429 kts 236°
2026-05-06 11:18 45.71402 55.05190 37865 ft 429 kts 236°
2026-05-06 11:18 45.68226 54.97947 37861 ft 430 kts 236°
2026-05-06 11:19 45.65042 54.90706 37861 ft 429 kts 236°
2026-05-06 11:19 45.61868 54.83505 37864 ft 430 kts 236°
2026-05-06 11:20 45.58673 54.76273 37860 ft 429 kts 236°
2026-05-06 11:20 45.55492 54.69088 37860 ft 430 kts 236°
2026-05-06 11:21 45.52288 54.61873 37861 ft 430 kts 236°
2026-05-06 11:21 45.49089 54.54700 37859 ft 431 kts 236°
2026-05-06 11:22 45.45867 54.47498 37858 ft 430 kts 236°
2026-05-06 11:22 45.42655 54.40336 37855 ft 430 kts 236°
2026-05-06 11:23 45.39447 54.33200 37853 ft 430 kts 236°
2026-05-06 11:23 45.36235 54.26069 37859 ft 429 kts 236°
2026-05-06 11:24 45.33015 54.18943 37854 ft 429 kts 235°
2026-05-06 11:24 45.29779 54.11797 37864 ft 430 kts 235°
2026-05-06 11:25 45.26561 54.04705 37857 ft 429 kts 236°
2026-05-06 11:25 45.23324 53.97593 37864 ft 430 kts 236°
2026-05-06 11:26 45.20108 53.90540 37874 ft 429 kts 236°
2026-05-06 11:26 45.16871 53.83444 37877 ft 429 kts 236°
2026-05-06 11:27 45.13600 53.76290 37912 ft 430 kts 236°
2026-05-06 11:27 45.10365 53.69227 37868 ft 429 kts 236°
2026-05-06 11:28 45.07120 53.62162 37880 ft 430 kts 236°
2026-05-06 11:28 45.03857 53.55076 37882 ft 430 kts 236°
2026-05-06 11:29 45.00604 53.48029 37928 ft 432 kts 235°
2026-05-06 11:29 44.97319 53.40932 37878 ft 431 kts 235°
2026-05-06 11:30 44.94026 53.33834 37883 ft 430 kts 234°
2026-05-06 11:30 44.90750 53.26792 37887 ft 431 kts 234°
2026-05-06 11:31 44.87479 53.19780 37884 ft 431 kts 235°
2026-05-06 11:31 44.84187 53.12737 37887 ft 431 kts 235°
2026-05-06 11:32 44.80898 53.05721 37886 ft 431 kts 235°
2026-05-06 11:32 44.77566 52.98636 37885 ft 431 kts 235°
2026-05-06 11:33 44.74263 52.91630 37880 ft 431 kts 234°
2026-05-06 11:33 44.70948 52.84619 37881 ft 431 kts 234°
2026-05-06 11:34 44.67625 52.77607 37883 ft 433 kts 234°
2026-05-06 11:34 44.64285 52.70577 37939 ft 432 kts 234°
2026-05-06 11:35 44.60963 52.63600 37906 ft 431 kts 234°
2026-05-06 11:35 44.57619 52.56594 37882 ft 431 kts 234°
2026-05-06 11:36 44.54285 52.49627 37883 ft 432 kts 234°
2026-05-06 11:36 44.50925 52.42624 37887 ft 433 kts 234°
2026-05-06 11:37 44.47588 52.35682 37888 ft 432 kts 234°
2026-05-06 11:37 44.44232 52.28718 37890 ft 432 kts 234°
2026-05-06 11:38 44.40866 52.21749 37895 ft 434 kts 234°
2026-05-06 11:38 44.37495 52.14785 37899 ft 433 kts 234°
2026-05-06 11:39 44.34220 52.07766 37905 ft 434 kts 235°
2026-05-06 11:39 44.30980 52.00618 37905 ft 433 kts 236°
2026-05-06 11:40 44.27757 51.93523 37905 ft 434 kts 235°
2026-05-06 11:40 44.24522 51.86448 37914 ft 434 kts 235°
2026-05-06 11:41 44.21271 51.79374 37919 ft 433 kts 235°
2026-05-06 11:41 44.18010 51.72305 37922 ft 434 kts 235°
2026-05-06 11:42 44.14756 51.65272 37926 ft 433 kts 235°
2026-05-06 11:42 44.11479 51.58208 37935 ft 433 kts 235°
2026-05-06 11:43 44.08218 51.51200 37930 ft 434 kts 235°
2026-05-06 11:43 44.04931 51.44150 37929 ft 434 kts 235°
2026-05-06 11:44 43.99997 51.33599 37937 ft 434 kts 234°
2026-05-06 11:44 43.96695 51.26559 37936 ft 434 kts 234°
2026-05-06 11:45 43.93423 51.19604 37940 ft 434 kts 234°
2026-05-06 11:45 43.90128 51.12614 37939 ft 433 kts 234°
2026-05-06 11:46 43.87017 51.05450 37938 ft 435 kts 240°
2026-05-06 11:46 43.84530 50.97824 37949 ft 437 kts 244°
2026-05-06 11:47 43.82262 50.90076 37947 ft 438 kts 245°
2026-05-06 11:47 43.79991 50.82251 37945 ft 438 kts 245°
2026-05-06 11:48 43.77712 50.74488 37952 ft 440 kts 244°
2026-05-06 11:48 43.75383 50.66641 37949 ft 438 kts 244°
2026-05-06 11:49 43.73056 50.58861 37948 ft 438 kts 244°
2026-05-06 11:49 43.70735 50.51138 37952 ft 439 kts 244°
2026-05-06 11:50 43.68386 50.43356 37955 ft 438 kts 244°
2026-05-06 11:50 43.66042 50.35609 37969 ft 438 kts 245°
2026-05-06 11:51 43.63699 50.27895 37956 ft 437 kts 244°
2026-05-06 11:51 43.61341 50.20155 37976 ft 439 kts 244°
2026-05-06 11:52 43.60951 50.18878 37972 ft 439 kts 244°
2026-05-06 11:53 43.51867 49.89270 37971 ft 439 kts 244°
2026-05-06 11:54 43.49491 49.81584 37963 ft 438 kts 244°
2026-05-06 11:54 43.47107 49.73894 37971 ft 438 kts 244°
2026-05-06 11:55 43.44695 49.66137 37970 ft 438 kts 244°
2026-05-06 11:55 43.42306 49.58479 37969 ft 439 kts 244°
2026-05-06 11:56 43.40266 49.50592 37967 ft 443 kts 255°
2026-05-06 11:56 43.39814 49.42092 37975 ft 452 kts 267°
2026-05-06 11:57 43.40114 49.33462 37969 ft 453 kts 269°
2026-05-06 11:57 43.40557 49.24873 37969 ft 453 kts 270°
2026-05-06 11:58 43.40975 49.16277 37978 ft 452 kts 269°
2026-05-06 11:58 43.41347 49.07716 37974 ft 452 kts 269°
2026-05-06 11:59 43.41692 48.99086 37978 ft 453 kts 269°
2026-05-06 11:59 43.42019 48.90453 37977 ft 454 kts 269°
2026-05-06 12:00 43.42335 48.81832 37977 ft 454 kts 269°
2026-05-06 12:00 43.42645 48.73185 37977 ft 454 kts 269°
2026-05-06 12:01 43.42945 48.64552 37980 ft 454 kts 269°
2026-05-06 12:01 43.43242 48.55853 37977 ft 455 kts 269°
2026-05-06 12:02 43.43532 48.47160 37978 ft 455 kts 269°
2026-05-06 12:02 43.43813 48.38572 37991 ft 453 kts 269°
2026-05-06 12:03 43.44090 48.29898 37998 ft 454 kts 269°
2026-05-06 12:03 43.44356 48.21327 38000 ft 453 kts 269°
2026-05-06 12:04 43.44620 48.12628 37996 ft 454 kts 269°
2026-05-06 12:04 43.44875 48.03992 37997 ft 454 kts 269°
2026-05-06 12:05 43.45123 47.95377 37995 ft 455 kts 269°
2026-05-06 12:05 43.45368 47.86688 38001 ft 454 kts 269°
2026-05-06 12:06 43.45605 47.78017 37994 ft 456 kts 269°
2026-05-06 12:06 43.45837 47.69317 37984 ft 456 kts 269°
2026-05-06 12:07 43.46063 47.60587 37980 ft 456 kts 269°
2026-05-06 12:07 43.46281 47.51874 37976 ft 458 kts 270°
2026-05-06 12:08 43.46493 47.43063 37972 ft 460 kts 270°
2026-05-06 12:08 43.46698 47.34329 37973 ft 459 kts 269°
2026-05-06 12:09 43.46898 47.25565 37971 ft 459 kts 269°
2026-05-06 12:09 43.47093 47.16755 37968 ft 460 kts 269°
2026-05-06 12:10 43.47279 47.07964 37966 ft 460 kts 269°
2026-05-06 12:10 43.47459 46.99214 37967 ft 459 kts 269°
2026-05-06 12:11 43.47631 46.90516 37972 ft 460 kts 269°
2026-05-06 12:11 43.47798 46.81675 37977 ft 461 kts 269°
2026-05-06 12:12 43.47958 46.72873 37977 ft 461 kts 269°
2026-05-06 12:12 43.48111 46.64115 37977 ft 460 kts 269°
2026-05-06 12:13 43.48257 46.55396 37982 ft 459 kts 269°
2026-05-06 12:13 43.48396 46.46648 37986 ft 460 kts 269°
2026-05-06 12:14 43.48530 46.37875 37989 ft 459 kts 269°
2026-05-06 12:14 43.48656 46.29126 37992 ft 459 kts 269°
2026-05-06 12:15 43.48774 46.20334 37991 ft 460 kts 269°
2026-05-06 12:15 43.48886 46.11531 37996 ft 460 kts 269°
2026-05-06 12:16 43.49050 46.02786 38002 ft 460 kts 271°
2026-05-06 12:16 43.49647 45.93980 38003 ft 461 kts 275°
2026-05-06 12:17 43.50422 45.85261 38007 ft 461 kts 275°
2026-05-06 12:17 43.51203 45.76490 38007 ft 461 kts 275°
2026-05-06 12:18 43.51947 45.67793 38008 ft 461 kts 275°
2026-05-06 12:18 43.52671 45.59040 38009 ft 461 kts 275°
2026-05-06 12:19 43.53376 45.50310 38011 ft 461 kts 275°
2026-05-06 12:19 43.54075 45.41486 38015 ft 461 kts 275°
2026-05-06 12:20 43.54759 45.32759 38012 ft 461 kts 274°
2026-05-06 12:20 43.55441 45.23957 38015 ft 461 kts 274°
2026-05-06 12:21 43.56110 45.15231 38012 ft 461 kts 274°
2026-05-06 12:21 43.56776 45.06458 38015 ft 462 kts 274°
2026-05-06 12:22 43.57438 44.97639 38014 ft 461 kts 274°
2026-05-06 12:22 43.58089 44.88866 38016 ft 461 kts 274°
2026-05-06 12:23 43.58728 44.80180 38017 ft 461 kts 274°
2026-05-06 12:23 43.59364 44.71447 38018 ft 462 kts 274°
2026-05-06 12:24 43.59996 44.62663 38018 ft 462 kts 274°
2026-05-06 12:24 43.60623 44.53869 38023 ft 461 kts 274°
2026-05-06 12:25 43.61245 44.45045 38023 ft 461 kts 274°
2026-05-06 12:25 43.61856 44.36275 38020 ft 461 kts 274°
2026-05-06 12:26 43.62465 44.27440 38028 ft 462 kts 274°
2026-05-06 12:26 43.63063 44.18664 38025 ft 462 kts 274°
2026-05-06 12:27 43.63579 44.10700 38027 ft 461 kts 272°
2026-05-06 12:27 43.63731 44.07489 38719 ft 469 kts 273°
2026-05-06 12:27 43.63887 44.02962 38294 ft 468 kts 272°
2026-05-06 12:28 43.64000 43.98537 38052 ft 459 kts 272°
2026-05-06 12:28 43.64096 43.94168 38010 ft 458 kts 271°
2026-05-06 12:28 43.64291 43.85318 38000 ft 466 kts 272°
2026-05-06 12:29 43.64502 43.76423 38000 ft 464 kts 272°
2026-05-06 12:29 43.64725 43.67518 38000 ft 464 kts 272°
2026-05-06 12:30 43.64950 43.58601 38000 ft 464 kts 272°
2026-05-06 12:30 43.65171 43.49730 37999 ft 464 kts 272°
2026-05-06 12:31 43.65387 43.40859 37999 ft 464 kts 272°
2026-05-06 12:31 43.65597 43.31979 37999 ft 464 kts 271°
2026-05-06 12:32 43.65800 43.23131 37999 ft 464 kts 271°
2026-05-06 12:32 43.65996 43.14229 37999 ft 464 kts 271°
2026-05-06 12:33 43.66186 43.05321 37999 ft 464 kts 271°
2026-05-06 12:33 43.66368 42.96446 37999 ft 464 kts 271°
2026-05-06 12:34 43.66543 42.87574 37999 ft 464 kts 271°
2026-05-06 12:34 43.66712 42.78691 37998 ft 464 kts 271°
2026-05-06 12:35 43.66875 42.69741 37998 ft 464 kts 271°
2026-05-06 12:35 43.67030 42.60851 37998 ft 464 kts 271°
2026-05-06 12:36 43.67177 42.51980 37998 ft 464 kts 271°
2026-05-06 12:36 43.67318 42.43089 37998 ft 464 kts 271°
2026-05-06 12:37 43.67451 42.34248 37999 ft 464 kts 271°
2026-05-06 12:37 43.67579 42.25333 37997 ft 459 kts 271°
2026-05-06 12:38 43.67639 42.20966 37998 ft 447 kts 271°
2026-05-06 12:38 43.67696 42.16694 38000 ft 442 kts 271°
2026-05-06 12:38 43.67804 42.08247 37999 ft 448 kts 271°
2026-05-06 12:39 43.67907 41.99709 37999 ft 447 kts 271°
2026-05-06 12:39 43.68005 41.91123 37999 ft 447 kts 271°
2026-05-06 12:40 43.68095 41.82583 37999 ft 447 kts 271°
2026-05-06 12:40 43.68179 41.74015 38000 ft 447 kts 271°
2026-05-06 12:41 43.68256 41.65485 38000 ft 447 kts 271°
2026-05-06 12:41 43.68328 41.56932 37945 ft 444 kts 271°
2026-05-06 12:42 43.68361 41.52692 37735 ft 435 kts 271°
2026-05-06 12:42 43.68391 41.48573 37374 ft 433 kts 271°
2026-05-06 12:42 43.68421 41.44426 36864 ft 435 kts 271°
2026-05-06 12:42 43.68449 41.40231 36399 ft 436 kts 271°
2026-05-06 12:43 43.68475 41.36102 35939 ft 434 kts 271°
2026-05-06 12:43 43.68499 41.31996 35433 ft 430 kts 270°
2026-05-06 12:43 43.68522 41.27922 34923 ft 426 kts 270°
2026-05-06 12:43 43.68543 41.23885 34417 ft 423 kts 270°
2026-05-06 12:44 43.68563 41.19812 33931 ft 419 kts 270°
2026-05-06 12:44 43.68581 41.15828 33518 ft 416 kts 270°
2026-05-06 12:44 43.68598 41.11849 33037 ft 413 kts 270°
2026-05-06 12:44 43.68613 41.07943 32548 ft 407 kts 270°
2026-05-06 12:45 43.68626 41.04157 32064 ft 401 kts 270°
2026-05-06 12:45 43.68639 41.00351 31293 ft 394 kts 270°
2026-05-06 12:45 43.68659 40.92946 30359 ft 388 kts 270°
2026-05-06 12:46 43.68667 40.89184 29933 ft 395 kts 270°
2026-05-06 12:46 43.68679 40.85443 29493 ft 392 kts 270°
2026-05-06 12:46 43.68695 40.81687 29012 ft 388 kts 270°
2026-05-06 12:46 43.68714 40.77967 28537 ft 384 kts 270°
2026-05-06 12:47 43.68732 40.74305 28067 ft 380 kts 270°
2026-05-06 12:47 43.68749 40.70676 27600 ft 377 kts 270°
2026-05-06 12:47 43.68763 40.67097 27140 ft 373 kts 270°
2026-05-06 12:47 43.68776 40.63569 26682 ft 369 kts 270°
2026-05-06 12:48 43.68788 40.60045 26228 ft 365 kts 270°
2026-05-06 12:48 43.68798 40.56573 25779 ft 362 kts 270°
2026-05-06 12:48 43.68807 40.53115 25334 ft 358 kts 270°
2026-05-06 12:48 43.68814 40.49709 24890 ft 355 kts 270°
2026-05-06 12:49 43.68820 40.46361 24456 ft 352 kts 270°
2026-05-06 12:49 43.68825 40.42963 24015 ft 356 kts 270°
2026-05-06 12:49 43.68830 40.39551 23568 ft 356 kts 270°
2026-05-06 12:49 43.68833 40.36163 23126 ft 352 kts 270°
2026-05-06 12:50 43.68835 40.32814 22689 ft 348 kts 270°
2026-05-06 12:50 43.68837 40.29515 22258 ft 344 kts 270°
2026-05-06 12:50 43.68837 40.26233 21830 ft 341 kts 270°
2026-05-06 12:50 43.68837 40.22981 21404 ft 337 kts 270°
2026-05-06 12:51 43.68750 40.19782 20986 ft 334 kts 264°
2026-05-06 12:51 43.68300 40.16643 20565 ft 330 kts 251°
2026-05-06 12:51 43.67363 40.13783 20155 ft 335 kts 239°
2026-05-06 12:51 43.66040 40.11140 20003 ft 331 kts 231°
2026-05-06 12:52 43.64506 40.08814 19820 ft 326 kts 222°
2026-05-06 12:52 43.62660 40.06992 19439 ft 330 kts 210°
2026-05-06 12:52 43.60627 40.05560 19017 ft 332 kts 205°
2026-05-06 12:52 43.58528 40.04248 18590 ft 328 kts 204°
2026-05-06 12:53 43.56456 40.03004 18174 ft 324 kts 203°
2026-05-06 12:53 43.54412 40.01774 17767 ft 321 kts 204°
2026-05-06 12:53 43.52388 40.00538 17362 ft 317 kts 204°
2026-05-06 12:53 43.50370 39.99292 16959 ft 314 kts 204°
2026-05-06 12:54 43.48387 39.98059 16559 ft 311 kts 204°
2026-05-06 12:54 43.46444 39.96846 16172 ft 312 kts 204°
2026-05-06 12:54 43.44465 39.95674 15906 ft 307 kts 201°
2026-05-06 12:54 43.42411 39.94674 15474 ft 314 kts 198°
2026-05-06 12:55 43.40338 39.93767 14747 ft 315 kts 197°
2026-05-06 12:55 43.38247 39.92870 13996 ft 316 kts 197°
2026-05-06 12:55 43.36192 39.91972 13258 ft 316 kts 198°
2026-05-06 12:55 43.34095 39.91038 12501 ft 315 kts 198°
2026-05-06 12:56 43.32029 39.90105 11753 ft 314 kts 198°
2026-05-06 12:56 43.29966 39.89169 11002 ft 313 kts 198°
2026-05-06 12:56 43.27912 39.88235 10252 ft 311 kts 198°
2026-05-06 12:56 43.25892 39.87317 9554 ft 308 kts 198°
2026-05-06 12:57 43.23890 39.86407 9192 ft 293 kts 198°
2026-05-06 12:57 43.22020 39.85559 8942 ft 278 kts 198°
2026-05-06 12:57 43.20206 39.84736 8606 ft 267 kts 198°
2026-05-06 12:57 43.18473 39.83950 8270 ft 262 kts 198°
2026-05-06 12:58 43.16732 39.83161 7972 ft 267 kts 198°
2026-05-06 12:58 43.15012 39.82383 7840 ft 252 kts 198°
2026-05-06 12:58 43.13394 39.81651 7773 ft 233 kts 198°
2026-05-06 12:58 43.11926 39.80987 7713 ft 216 kts 198°
2026-05-06 12:59 43.10519 39.80351 7649 ft 211 kts 198°
2026-05-06 12:59 43.09171 39.79743 7568 ft 193 kts 198°
2026-05-06 12:59 43.08009 39.79028 7445 ft 181 kts 219°
2026-05-06 12:59 43.07348 39.77616 7150 ft 178 kts 253°
2026-05-06 13:00 43.07209 39.75955 6840 ft 177 kts 272°
2026-05-06 13:00 43.07470 39.74324 6458 ft 180 kts 296°
2026-05-06 13:00 43.08312 39.73014 5916 ft 191 kts 326°
2026-05-06 13:00 43.09549 39.72303 5412 ft 196 kts 348°
2026-05-06 13:01 43.10867 39.72421 5197 ft 186 kts 18°
2026-05-06 13:01 43.11992 39.73107 4987 ft 170 kts 26°
2026-05-06 13:01 43.13025 39.73761 4733 ft 161 kts 24°
2026-05-06 13:01 43.14053 39.74380 4383 ft 160 kts 24°
2026-05-06 13:02 43.15048 39.74974 4178 ft 156 kts 24°
2026-05-06 13:02 43.16063 39.75581 4124 ft 159 kts 24°
2026-05-06 13:02 43.17075 39.76188 4070 ft 159 kts 24°
2026-05-06 13:02 43.18088 39.76794 4015 ft 159 kts 24°
2026-05-06 13:03 43.19103 39.77403 3959 ft 159 kts 24°
2026-05-06 13:03 43.20115 39.78010 3917 ft 158 kts 24°
2026-05-06 13:03 43.21125 39.78615 3856 ft 158 kts 24°
2026-05-06 13:03 43.22135 39.79221 3671 ft 159 kts 24°
2026-05-06 13:04 43.23143 39.79827 3466 ft 154 kts 24°
2026-05-06 13:04 43.24106 39.80405 3306 ft 151 kts 24°
2026-05-06 13:04 43.25076 39.80987 3152 ft 151 kts 24°
2026-05-06 13:04 43.26053 39.81574 2996 ft 151 kts 24°
2026-05-06 13:05 43.27009 39.82151 2866 ft 149 kts 24°
2026-05-06 13:05 43.27940 39.82758 2862 ft 150 kts 26°
2026-05-06 13:05 43.28871 39.83410 2859 ft 146 kts 28°
2026-05-06 13:05 43.29731 39.84114 2865 ft 146 kts 32°
2026-05-06 13:06 43.30610 39.84826 2807 ft 147 kts 30°
2026-05-06 13:06 43.31499 39.85516 2588 ft 145 kts 29°
2026-05-06 13:06 43.32378 39.86185 2397 ft 144 kts 29°
2026-05-06 13:06 43.33264 39.86854 2200 ft 144 kts 29°
2026-05-06 13:07 43.34140 39.87513 2009 ft 144 kts 28°
2026-05-06 13:07 43.35010 39.88164 1821 ft 143 kts 28°
2026-05-06 13:07 43.35886 39.88820 1632 ft 143 kts 28°
2026-05-06 13:07 43.36755 39.89471 1440 ft 143 kts 28°
2026-05-06 13:08 43.37628 39.90123 1251 ft 142 kts 28°
2026-05-06 13:08 43.38498 39.90773 1062 ft 142 kts 28°
2026-05-06 13:08 43.39365 39.91422 874 ft 141 kts 28°
2026-05-06 13:08 43.40226 39.92065 686 ft 141 kts 28°
2026-05-06 13:09 43.41084 39.92709 490 ft 141 kts 29°
2026-05-06 13:09 43.41943 39.93349 297 ft 139 kts 28°
2026-05-06 13:09 43.42794 39.93977 163 ft 135 kts 28°
2026-05-06 13:09 43.43605 39.94590 55 ft 128 kts 29°
2026-05-06 13:10 43.44212 39.95048 56 ft 79 kts 29°
2026-05-06 13:10 43.44524 39.95283 60 ft 44 kts 28°
2026-05-06 13:10 43.44786 39.95480 64 ft 39 kts 28°
2026-05-06 13:10 43.45012 39.95544 68 ft 27 kts 334°
2026-05-06 13:11 43.45014 39.95335 64 ft 26 kts 245°
2026-05-06 13:11 43.44931 39.95099 61 ft 27 kts 240°
2026-05-06 13:11 43.44847 39.94856 58 ft 28 kts 246°
2026-05-06 13:11 43.44768 39.94627 56 ft 16 kts 245°
2026-05-06 13:12 43.44785 39.94543 57 ft 11 kts 335°
2026-05-06 13:12 43.44850 39.94500 58 ft 5 kts 335°
2026-05-06 13:12 43.44857 39.94495 58 ft 0 kts 335°